TimeCDT,TemperatureF,Dew PointF,Humidity,Sea Level PressureIn,VisibilityMPH,Wind Direction,Wind SpeedMPH,Gust SpeedMPH,PrecipitationIn,Events,Conditions,WindDirDegrees,DateUTC
12:13 AM,12.2,6.8,79,30.31,10.0,Calm,Calm,-,N/A,,Clear,0,2013-04-21 05:13:00
12:33 AM,10.4,5.0,79,30.31,10.0,East,3.5,-,N/A,,Clear,100,2013-04-21 05:33:00
12:54 AM,8.6,3.2,79,30.31,10.0,Calm,Calm,-,N/A,,Clear,0,2013-04-21 05:54:00
1:13 AM,12.2,6.8,79,30.31,10.0,Calm,Calm,-,N/A,,Clear,0,2013-04-21 06:13:00
1:33 AM,10.4,6.8,85,30.30,10.0,Calm,Calm,-,N/A,,Clear,0,2013-04-21 06:33:00
1:54 AM,10.4,6.8,85,30.30,10.0,Calm,Calm,-,N/A,,Clear,0,2013-04-21 06:54:00
2:14 AM,10.4,3.2,73,30.30,10.0,ESE,4.6,-,N/A,,Clear,110,2013-04-21 07:14:00
2:34 AM,10.4,3.2,73,30.31,10.0,ESE,3.5,-,N/A,,Clear,120,2013-04-21 07:34:00
2:53 AM,12.2,3.2,67,30.31,10.0,East,3.5,-,N/A,,Clear,100,2013-04-21 07:53:00
3:13 AM,10.4,5.0,79,30.31,10.0,Calm,Calm,-,N/A,,Clear,0,2013-04-21 08:13:00
3:34 AM,12.2,5.0,73,30.31,10.0,ESE,3.5,-,N/A,,Clear,110,2013-04-21 08:34:00
3:53 AM,12.2,6.8,79,30.31,10.0,ESE,3.5,-,N/A,,Clear,110,2013-04-21 08:53:00
4:13 AM,10.4,5.0,79,30.31,10.0,Calm,Calm,-,N/A,,Clear,0,2013-04-21 09:13:00
4:33 AM,12.2,6.8,79,30.31,10.0,Calm,Calm,-,N/A,,Clear,0,2013-04-21 09:33:00
4:54 AM,6.8,3.2,85,30.31,10.0,East,3.5,-,N/A,,Clear,90,2013-04-21 09:54:00
5:13 AM,5.0,-0.4,78,30.30,10.0,East,3.5,-,N/A,,Clear,80,2013-04-21 10:13:00
5:33 AM,8.6,5.0,85,30.30,10.0,East,5.8,-,N/A,,Clear,90,2013-04-21 10:33:00
5:54 AM,8.6,3.2,79,30.30,10.0,East,5.8,-,N/A,,Clear,100,2013-04-21 10:54:00
6:14 AM,10.4,3.2,73,30.30,10.0,East,4.6,-,N/A,,Clear,100,2013-04-21 11:14:00
6:33 AM,12.2,5.0,73,30.30,10.0,East,5.8,-,N/A,,Clear,90,2013-04-21 11:33:00
6:54 AM,19.4,10.4,68,30.30,10.0,East,4.6,-,N/A,,Clear,100,2013-04-21 11:54:00
7:14 AM,19.4,10.4,68,30.30,10.0,ESE,4.6,-,N/A,,Clear,110,2013-04-21 12:14:00
7:33 AM,21.2,12.2,68,30.30,10.0,ESE,5.8,-,N/A,,Scattered Clouds,110,2013-04-21 12:33:00
7:53 AM,24.8,15.8,69,30.30,10.0,ESE,6.9,-,N/A,,Mostly Cloudy,110,2013-04-21 12:53:00
8:14 AM,24.8,17.6,74,30.29,10.0,ESE,5.8,-,N/A,,Scattered Clouds,110,2013-04-21 13:14:00
8:33 AM,26.6,19.4,74,30.29,10.0,ESE,6.9,-,N/A,,Clear,110,2013-04-21 13:33:00
8:54 AM,28.4,19.4,69,30.29,10.0,ESE,6.9,-,N/A,,Mostly Cloudy,110,2013-04-21 13:54:00
9:13 AM,30.2,17.6,60,30.28,10.0,ESE,10.4,-,N/A,,Mostly Cloudy,120,2013-04-21 14:13:00
9:33 AM,30.2,19.4,64,30.28,10.0,SE,9.2,16.1,N/A,,Mostly Cloudy,140,2013-04-21 14:33:00
9:54 AM,32.0,17.6,55,30.28,10.0,SE,8.1,16.1,N/A,,Mostly Cloudy,140,2013-04-21 14:54:00
10:13 AM,32.0,17.6,55,30.27,10.0,SSE,11.5,18.4,N/A,,Mostly Cloudy,150,2013-04-21 15:13:00
10:34 AM,32.0,17.6,55,30.27,10.0,SSE,11.5,-,N/A,,Mostly Cloudy,150,2013-04-21 15:34:00
10:53 AM,33.8,17.6,52,30.27,10.0,SE,11.5,17.3,N/A,,Mostly Cloudy,140,2013-04-21 15:53:00
11:13 AM,33.8,19.4,56,30.26,10.0,SSE,9.2,-,N/A,,Mostly Cloudy,160,2013-04-21 16:13:00
11:33 AM,30.2,19.4,64,30.25,7.0,SSE,10.4,16.1,N/A,,Mostly Cloudy,160,2013-04-21 16:33:00
11:53 AM,28.4,21.2,74,30.25,7.0,South,8.1,-,N/A,,Overcast,170,2013-04-21 16:53:00
12:13 PM,28.4,21.2,74,30.24,7.0,SSE,9.2,-,N/A,Snow,Light Snow,150,2013-04-21 17:13:00
12:34 PM,28.4,21.2,74,30.23,4.0,SSE,9.2,-,N/A,Snow,Light Snow,160,2013-04-21 17:34:00
12:53 PM,28.4,21.2,74,30.22,4.0,SE,5.8,-,N/A,Snow,Light Snow,130,2013-04-21 17:53:00
1:13 PM,28.4,21.2,74,30.21,7.0,SSE,9.2,-,N/A,Snow,Light Snow,150,2013-04-21 18:13:00
1:34 PM,30.2,23.0,75,30.20,4.0,SE,10.4,-,N/A,Snow,Light Snow,130,2013-04-21 18:34:00
1:53 PM,30.2,23.0,75,30.19,7.0,SE,8.1,-,N/A,Snow,Light Snow,140,2013-04-21 18:53:00
2:13 PM,30.2,24.8,80,30.17,10.0,SE,9.2,-,N/A,,Overcast,130,2013-04-21 19:13:00
2:34 PM,30.2,24.8,80,30.16,2.5,SE,11.5,19.6,N/A,Snow,Light Snow,140,2013-04-21 19:34:00
2:54 PM,30.2,26.6,86,30.15,2.0,SSE,11.5,21.9,N/A,Snow,Light Snow,150,2013-04-21 19:54:00
3:13 PM,30.2,26.6,86,30.14,3.0,SSE,12.7,18.4,N/A,Snow,Light Snow,150,2013-04-21 20:13:00
3:33 PM,30.2,26.6,86,30.13,10.0,SE,9.2,18.4,N/A,,Overcast,140,2013-04-21 20:33:00
3:53 PM,30.2,26.6,86,30.12,10.0,SSE,12.7,19.6,N/A,,Overcast,150,2013-04-21 20:53:00
4:13 PM,30.2,26.6,86,30.12,10.0,SSE,6.9,17.3,N/A,,Overcast,150,2013-04-21 21:13:00
4:34 PM,30.2,26.6,86,30.11,10.0,SSE,12.7,20.7,N/A,,Overcast,150,2013-04-21 21:34:00
4:53 PM,32.0,26.6,80,30.10,10.0,SSE,13.8,20.7,N/A,,Overcast,150,2013-04-21 21:53:00
5:14 PM,32.0,24.8,75,30.09,10.0,SSE,9.2,20.7,N/A,,Overcast,150,2013-04-21 22:14:00
5:33 PM,32.0,26.6,80,30.08,5.0,SE,9.2,20.7,N/A,Snow,Light Snow,140,2013-04-21 22:33:00
5:53 PM,32.0,26.6,80,30.08,4.0,SE,11.5,23.0,N/A,Snow,Light Snow,140,2013-04-21 22:53:00
6:13 PM,30.2,26.6,86,30.07,1.0,SSE,10.4,20.7,0.01,Snow,Light Snow,150,2013-04-21 23:13:00
6:33 PM,30.2,26.6,86,30.07,1.0,SSE,15.0,20.7,0.01,Snow,Light Snow,160,2013-04-21 23:33:00
6:54 PM,30.2,26.6,86,30.06,0.8,SSE,11.5,19.6,0.02,Snow,Snow,150,2013-04-21 23:54:00
7:14 PM,30.2,26.6,86,30.06,0.8,South,13.8,21.9,N/A,Snow,Light Snow,170,2013-04-22 00:14:00
7:34 PM,30.2,26.6,86,30.06,1.0,South,11.5,24.2,0.01,Snow,Light Snow,170,2013-04-22 00:34:00
7:54 PM,30.2,26.6,86,30.05,0.5,SSE,9.2,17.3,0.04,Snow,Light Snow,160,2013-04-22 00:54:00
8:13 PM,30.2,26.6,86,30.05,0.8,SSE,9.2,-,0.02,Snow,Snow,160,2013-04-22 01:13:00
8:33 PM,28.4,26.6,93,30.06,1.0,SSE,9.2,-,0.05,Snow,Snow,160,2013-04-22 01:33:00
8:53 PM,28.4,26.6,93,30.06,0.8,South,5.8,-,0.06,Snow,Snow,170,2013-04-22 01:53:00
9:14 PM,28.4,26.6,93,30.06,1.0,SSE,8.1,-,0.02,Snow,Snow,160,2013-04-22 02:14:00
9:33 PM,28.4,26.6,93,30.06,1.5,SSE,6.9,-,0.05,Snow,Light Snow,150,2013-04-22 02:33:00
9:53 PM,28.4,26.6,93,30.05,1.0,SSE,5.8,-,0.06,Snow,Snow,150,2013-04-22 02:53:00
10:13 PM,28.4,26.6,93,30.05,1.0,SSE,5.8,-,0.02,Snow,Snow,150,2013-04-22 03:13:00
10:34 PM,28.4,26.6,93,30.04,1.5,SSE,5.8,-,0.04,,Overcast,150,2013-04-22 03:34:00
10:54 PM,28.4,26.6,93,30.03,1.5,SSE,5.8,-,0.07,,Overcast,150,2013-04-22 03:54:00
11:13 PM,28.4,26.6,93,30.03,1.0,SSE,5.8,-,0.02,Snow,Light Snow,160,2013-04-22 04:13:00
11:33 PM,28.4,26.6,93,30.03,0.2,SSE,5.8,-,0.04,,Overcast,160,2013-04-22 04:33:00
11:53 PM,30.2,26.6,86,30.02,0.2,SSE,3.5,-,0.06,,Overcast,150,2013-04-22 04:53:00